Location: Follega
(52.8850°N, 5.7362°E)
Time: 10:58:38
(UTC+00:00)

CARTOSAT-1 - Pass Details

Date: 03 October 2020
Orbit: 616 x 619 km, 97.8° (Epoch: 20 October)

Event Time Altitude Azimuth Distance (km) Brightness Sun altitude
Exits shadow 21:27:36 18° 333° (NNW) 1,525 6.2 -35.8°
Drops below altitude 10° 21:28:48 10° 338° (NNW) 1,993 6.9 -35.9°
Sets 21:31:03 0° 343° (NNW) 2,903 7.9 -36.1°
